Yatton Keynell, United Kingdom

9:54 PM GMT on March 23, 2019 (GMT +0000)
Yatton Keynell

Weather History for 03740 - July, 2012

Change the Weather History Date:

Thursday, July 26, 2012

  Actual Average Record
Temperature  
Mean Temperature 69 °F -  
Max Temperature 81 °F 68 °F - ()
Min Temperature 57 °F 53 °F - ()
Cooling Degree Days 4    
Growing Degree Days 19 (Base 50)    
Moisture  
Dew Point 57 °F    
Average Humidity 67    
Maximum Humidity 94    
Minimum Humidity 39    
Precipitation  
Precipitation 0.00 in 0.08 in - ()
Sea Level Pressure  
Sea Level Pressure 30.05 in    
Wind  
Wind Speed 7 mph ()    
Max Wind Speed 10 mph    
Max Gust Speed -    
T = Trace of Precipitation, MM = Missing Value Source: Averaged Metar Reports

Daily Weather History Graph

Daily Weather History Graph

Search for Another Location

Airport or City:

Astronomy

Jul. 26, 2012 Rise Set
Actual Time 5:23 AM BST 9:04 PM BST
Civil Twilight 4:41 AM BST 9:46 PM BST
Nautical Twilight 3:43 AM BST 10:43 PM BST
Astronomical Twilight 2:12 AM BST 12:11 AM BST
Moon 2:27 PM BST (7/26) 11:51 PM BST (7/26)
Length of Visible Light 17h 05m
Length of Day
15h 41m
Waxing Crescent, 51% of the Moon is Illuminated
Jul 26
Waxing Crescent
Aug 2
Full
Aug 9
Last Quarter
Aug 17
New
Aug 24
First Quarter

Hourly Weather History & Observations

Time (BST) Temp. Heat Index Dew Point Humidity Pressure Visibility Wind Dir Wind Speed Gust Speed Precip Events Conditions
12:50 AM 63 °F - 55 °F 68% 30.09 in - NE 10.4 mph - -  
12:50 AM 62.6 °F - 55.4 °F 77% 30.09 in - NE 10.4 mph - N/A   Unknown
1:50 AM 60.8 °F - 53.6 °F 77% 30.09 in - NE 10.4 mph - N/A   Unknown
2:50 AM 59.0 °F - 55.4 °F 88% 30.06 in - NE 10.4 mph - N/A   Unknown
3:50 AM 58 °F - 55 °F 86% 30.09 in - NE 8.1 mph - -  
3:50 AM 59.0 °F - 55.4 °F 88% 30.06 in - NE 8.1 mph - N/A   Unknown
4:50 AM 57.2 °F - 55.4 °F 94% 30.06 in - NE 9.2 mph - N/A   Partly Cloudy
5:50 AM 57.2 °F - 55.4 °F 94% 30.06 in - NE 8.1 mph - N/A   Mostly Cloudy
6:50 AM 58 °F - 56 °F 89% 30.10 in - ENE 9.2 mph - -  
6:50 AM 57.2 °F - 55.4 °F 94% 30.09 in - ENE 9.2 mph - N/A   Partly Cloudy
7:50 AM 60.8 °F - 55.4 °F 82% 30.09 in - ENE 8.1 mph - N/A   Unknown
8:50 AM 62.6 °F - 57.2 °F 82% 30.09 in - NE 6.9 mph - N/A   Mostly Cloudy
9:50 AM 68 °F - 58 °F 61% 30.11 in - East 5.8 mph - -   Partly Cloudy
9:50 AM 68.0 °F - 57.2 °F 68% 30.09 in - East 5.8 mph - N/A   Scattered Clouds
10:50 AM 71.6 °F - 57.2 °F 60% 30.09 in - East 6.9 mph - N/A   Scattered Clouds
11:50 AM 75.2 °F - 57.2 °F 53% 30.09 in - ENE 5.8 mph - N/A   Unknown
12:50 PM 76 °F - 58 °F 44% 30.07 in - East 5.8 mph - -  
12:50 PM 77.0 °F - 59.0 °F 54% 30.06 in - East 5.8 mph - N/A   Unknown
1:50 PM 78.8 °F - 57.2 °F 47% 30.06 in - ESE 5.8 mph - N/A   Unknown
2:50 PM 78.8 °F - 59.0 °F 51% 30.04 in - ESE 6.9 mph - N/A   Partly Cloudy
3:50 PM 80 °F - 60 °F 39% 30.02 in - SE 5.8 mph - -   Partly Cloudy
3:50 PM 80.6 °F 81.1 °F 59.0 °F 48% 30.04 in - SE 5.8 mph - N/A   Scattered Clouds
4:50 PM 80.6 °F 81.1 °F 59.0 °F 48% 30.01 in - ESE 4.6 mph - N/A   Unknown
5:50 PM 80.6 °F 80.8 °F 57.2 °F 45% 30.01 in - SE 5.8 mph - N/A   Unknown
6:50 PM 77 °F - 58 °F 42% 29.98 in - SE 5.8 mph - -   Scattered Clouds
6:50 PM 77.0 °F - 59.0 °F 54% 29.98 in - SE 5.8 mph - N/A   Partly Cloudy
7:50 PM 73.4 °F - 59.0 °F 61% 29.98 in - ESE 5.8 mph - N/A   Scattered Clouds
8:50 PM 71.6 °F - 57.2 °F 60% 30.01 in - ESE 4.6 mph - N/A   Unknown
9:50 PM 71 °F - 58 °F 56% 30.00 in - SSE 3.5 mph - -   Partly Cloudy
9:50 PM 71.6 °F - 59.0 °F 64% 30.01 in - SSE 3.5 mph - N/A   Scattered Clouds
10:50 PM 68.0 °F - 60.8 °F 78% 30.01 in - South 3.5 mph - N/A   Mostly Cloudy
11:50 PM 66.2 °F - 60.8 °F 83% 29.98 in - WNW 9.2 mph - N/A   Partly Cloudy